[[{"header":{"parameterUnit":"m.s-1","parameterCategory":1,"la1":30.2991,"la2":30.254,"lo1":-89.0895,"lo2":-89.0444,"dx":0.0017,"dy":0.0017,"nx":28,"ny":28,"refTime":"2023-01-02T15:00:00:Z","depth":0,"parameterNumber":2,"parameterNumberName":"U-component_of_WINDS"},"data":[0,0,0,0,0,0,0,0,0,0,0,0,0,0,0,0,0,0,0,0,0,0,0,0,0,0,0,0,0,0,0,0,0,0,0,0,0,0,0,0,0,0,0,0,0,0,0,0,0,0,0,0,0,0,0,0,0,0,-3.2992,-3.2992,0,-3.3066,-3.3067,-3.3068,-3.3031,-3.3029,-3.3027,-3.3026,-3.3104,-3.3108,-3.3112,0,0,0,0,0,0,0,0,0,0,0,0,0,-3.2821,-3.2825,-3.2992,-3.2992,-3.2993,-3.3066,-3.3067,-3.3068,-3.3032,-3.3029,-3.3027,-3.3025,-3.3103,-3.3107,-3.3112,0,0,0,0,0,0,0,0,0,0,0,0,0,-3.2896,-3.2826,-3.2991,-3.2984,-3.2984,-3.3065,-3.3067,-3.3068,-3.3032,-3.3029,-3.3026,-3.3024,-3.3101,-3.3107,-3.3113,-3.3206,0,0,-3.3131,-3.3133,0,0,0,0,0,0,0,0,-3.2891,-3.2902,-3.2984,-3.2985,-3.2985,-3.3036,-3.3035,-3.3115,-3.3033,-3.3014,-3.3026,-3.3022,-3.3084,-3.3091,-3.3111,-3.321,-3.3213,-3.3131,-3.3135,-3.3137,-3.3139,0,0,0,0,0,0,0,-3.2886,-3.2898,-3.3021,-3.2985,-3.2986,-3.2978,-3.2985,-3.305,-3.3064,-3.3015,-3.3013,-3.3022,-3.3084,-3.3106,-3.3113,-3.3215,-3.3131,-3.3136,-3.314,-3.3142,-3.3394,-3.3397,0,0,0,0,0,0,-3.2881,-3.2894,-3.3019,-3.3023,-3.293,-3.2983,-3.2992,-3.3023,-3.3064,-3.3067,-3.3024,-3.302,-3.3097,-3.3106,-3.3116,-3.3228,-3.3137,-3.3142,-3.3146,-3.3391,-3.3395,-3.3399,0,0,0,0,0,0,-3.2878,-3.2893,-3.3016,-3.2958,-3.2973,-3.2989,-3.3025,-3.3026,-3.3048,-3.307,-3.3073,-3.3044,-3.3095,-3.3107,-3.3184,-3.323,-3.3145,-3.315,-3.3387,-3.3392,-3.3397,-3.3453,0,0,0,0,0,0,-3.2873,-3.2891,-3.2926,-3.2959,-3.2976,-3.3082,-3.3028,-3.3029,-3.3058,-3.3053,-3.309,-3.3093,-3.3094,-3.3176,-3.319,-3.3236,-3.3155,-3.3383,-3.339,-3.3395,-3.3447,-3.3459,-3.3469,0,0,0,0,0,-3.2867,-3.294,-3.2928,-3.2944,-3.302,-3.3085,-3.3095,-3.3093,-3.3061,-3.3097,-3.3112,-3.3092,-3.3223,-3.3184,-3.3199,-3.3249,-3.338,-3.3388,-3.3395,-3.3442,-3.3457,-3.3469,0,0,0,0,0,0,-3.2912,-3.2944,-3.2932,-3.3017,-3.3048,-3.3078,-3.3123,-3.3109,-3.3151,-3.3144,-3.3142,-3.3151,-3.323,-3.3247,-3.3203,-3.3342,-3.3297,-3.3308,-3.3327,-3.3341,-3.3352,-3.3346,-3.316,0,0,0,0,0,-3.2932,-3.2981,-3.3006,-3.3079,-3.3096,-3.3107,-3.3135,-3.3131,-3.3164,-3.3177,-3.3198,-3.3231,-3.328,-3.3312,-3.3358,-3.345,-3.3457,-3.3492,-3.3503,-3.3512,-3.3521,-3.3571,-3.3586,-3.3422,-3.3422,-3.3422,0,0,-3.2974,-3.2997,-3.3028,-3.3089,-3.3113,-3.3164,-3.3118,-3.3174,-3.3213,-3.3186,-3.3259,-3.3276,-3.3313,-3.3398,-3.3436,-3.3414,-3.3568,-3.3521,-3.3528,-3.3532,-3.358,-3.3595,-3.3609,-3.3427,-3.3426,-3.3426,0,0,-3.3076,-3.3098,-3.3161,-3.3186,-3.3223,-3.323,-3.3246,-3.3278,-3.3288,-3.3361,-3.3342,-3.3389,-3.3473,-3.35,-3.3524,-3.3638,-3.3621,-3.3654,-3.3711,-3.376,-3.3773,-3.3784,-3.3825,-3.3839,-3.3663,-3.3663,-3.3663,0,-3.3123,-3.3198,-3.3196,-3.3253,-3.3281,-3.3259,-3.3324,-3.3348,-3.3399,-3.3419,-3.3394,-3.3499,-3.3522,-3.3613,-3.3641,-3.3662,-3.368,-3.3648,-3.3771,-3.3783,-3.3793,-3.3832,-3.3847,-3.3666,-3.3666,-3.3666,-3.3665,0,-3.3255,-3.3307,-3.3354,-3.3402,-3.3435,-3.3496,-3.3504,-3.3538,-3.3532,-3.3543,-3.3618,-3.3646,-3.3697,-3.3719,-3.3714,-3.3809,-3.3795,-3.3771,-3.3725,-3.3813,-3.3848,-3.3863,-3.3672,-3.367,-3.3669,-3.3668,0,0,-3.3385,-3.3432,-3.3449,-3.3471,-3.351,-3.3552,-3.3612,-3.3662,-3.3691,-3.3727,-3.3778,-3.385,-3.3828,-3.3856,-3.3855,-3.3898,-3.3986,-3.3869,-3.387,-3.3889,-3.4092,-3.4109,-3.4126,-3.3976,-3.3979,-3.3981,-3.4089,0,-3.3489,-3.3593,-3.3594,-3.369,-3.3739,-3.372,-3.3773,-3.3804,-3.3815,-3.386,-3.3873,-3.3924,-3.3892,-3.3908,-3.395,-3.3966,-3.4027,-3.3959,-3.4023,-3.4025,-3.4013,-3.4145,-3.4163,-3.4263,-3.4103,-3.4105,-3.4107,0,-3.3624,-3.3663,-3.3764,-3.3797,-3.3818,-3.3865,-3.391,-3.3953,-3.3988,-3.3993,-3.4026,-3.4018,-3.408,-3.4035,-3.4121,-3.4075,-3.4102,-3.4114,-3.4118,-3.4123,-3.407,-3.4152,-3.4295,-3.431,-3.4129,-3.4128,-3.4126,0,-3.3708,-3.3787,-3.3857,-3.3877,-3.3917,-3.3951,-3.3969,-3.4001,-3.4031,-3.4072,-3.4091,-3.4139,-3.4165,-3.4203,-3.4209,-3.4175,-3.4296,-3.425,-3.4302,-3.4302,-3.4327,-3.4325,-3.4475,-3.4347,-3.4347,-3.4346,-3.4346,0,-3.3823,-3.3886,-3.3896,-3.3939,-3.4009,-3.401,-3.4079,-3.4095,-3.4124,-3.4171,-3.4158,-3.4203,-3.4208,-3.4255,-3.426,-3.4331,-3.4343,-3.435,-3.435,-3.435,-3.4349,-3.4366,-3.4359,-3.435,-3.4349,-3.4349,-3.4348,0,-3.3928,-3.3937,-3.4013,-3.4045,-3.4055,-3.4105,-3.4132,-3.4175,-3.4185,-3.4245,-3.4259,-3.4277,-3.4331,-3.4341,-3.4405,-3.4408,-3.4493,-3.4487,-3.448,-3.4479,-3.453,-3.4525,-3.4696,-3.4718,-3.4576,-3.4577,-3.4578,0,-3.4,-3.4048,-3.4085,-3.4115,-3.4135,-3.4183,-3.4214,-3.4217,-3.4249,-3.4293,-3.433,-3.4383,-3.4424,-3.4512,-3.4531,-3.458,-3.4575,-3.4631,-3.4582,-3.4581,-3.4575,-3.4571,-3.4576,-3.464,-3.4642,-3.4643,-3.4644,0,-3.4127,-3.4129,-3.4173,-3.4219,-3.4255,-3.4292,-3.4326,-3.4352,-3.436,-3.4397,-3.4452,-3.4484,-3.455,-3.4602,-3.4651,-3.4672,-3.466,-3.466,-3.4674,-3.4674,-3.4668,-3.4671,-3.4505,-3.4655,-3.4654,-3.4653,-3.4653,-3.4652,-3.4217,-3.4258,-3.429,-3.434,-3.4366,-3.4399,-3.444,-3.4456,-3.4501,-3.4554,-3.4554,-3.4613,-3.4648,-3.4713,-3.4737,-3.4784,-3.4766,-3.4787,-3.4792,-3.4797,-3.4801,-3.4662,-3.4793,-3.4793,-3.4793,-3.4793,-3.4792,0,-3.4342,-3.4362,-3.4407,-3.4456,-3.4495,-3.448,-3.4518,-3.4552,-3.4604,-3.4637,-3.4679,-3.4742,-3.4793,-3.4817,-3.4868,-3.4901,-3.4897,-3.4914,-3.4911,-3.4916,-3.4815,-3.4797,-3.4917,-3.4917,-3.4917,-3.4917,-3.4917,-3.4917,-3.4411,-3.448,-3.4487,-3.4569,-3.4589,-3.4647,-3.467,-3.47,-3.4727,-3.4797,-3.4839,-3.4854,-3.4884,-3.4937,-3.4984,-3.4989,-3.5008,-3.5028,-3.5031,-3.4936,-3.4923,-3.4911,-3.4894,-3.5032,-3.5032,-3.5128,-3.5129,-3.5129]},{"header":{"parameterUnit":"m.s-1","parameterCategory":1,"la1":30.2991,"la2":30.254,"lo1":-89.0895,"lo2":-89.0444,"dx":0.0017,"dy":0.0017,"nx":28,"ny":28,"refTime":"2023-01-02T15:00:00:Z","depth":0,"parameterNumber":3,"parameterNumberName":"V-component_of_WINDS"},"data":[0,0,0,0,0,0,0,0,0,0,0,0,0,0,0,0,0,0,0,0,0,0,0,0,0,0,0,0,0,0,0,0,0,0,0,0,0,0,0,0,0,0,0,0,0,0,0,0,0,0,0,0,0,0,0,0,0,0,2.3477,2.3478,0,2.3577,2.3578,2.3579,2.3634,2.3634,2.3634,2.3635,2.3733,2.3735,2.3738,0,0,0,0,0,0,0,0,0,0,0,0,0,2.3334,2.3336,2.3477,2.3478,2.348,2.3577,2.3578,2.3579,2.3634,2.3634,2.3634,2.3635,2.3732,2.3735,2.3738,0,0,0,0,0,0,0,0,0,0,0,0,0,2.3411,2.3337,2.3477,2.3519,2.3524,2.3576,2.3578,2.358,2.3634,2.3634,2.3634,2.3635,2.3731,2.3735,2.3738,2.3756,0,0,2.375,2.3751,0,0,0,0,0,0,0,0,2.3406,2.3416,2.3511,2.3516,2.3521,2.3593,2.3564,2.3639,2.3634,2.3592,2.3635,2.3635,2.3686,2.3693,2.3712,2.3761,2.3765,2.375,2.3752,2.3754,2.3755,0,0,0,0,0,0,0,2.3401,2.3412,2.3517,2.3513,2.3519,2.3532,2.3544,2.3578,2.3636,2.3596,2.36,2.3611,2.3689,2.3708,2.3714,2.3767,2.375,2.3753,2.3756,2.3757,2.3839,2.3839,0,0,0,0,0,0,2.3389,2.3407,2.3513,2.352,2.3463,2.3535,2.3547,2.357,2.3636,2.3646,2.3611,2.3613,2.3701,2.371,2.3718,2.3745,2.3754,2.3757,2.3759,2.3839,2.3839,2.3839,0,0,0,0,0,0,2.3386,2.3398,2.3509,2.3465,2.348,2.3537,2.3562,2.3572,2.3591,2.3648,2.3658,2.362,2.3702,2.3713,2.3747,2.375,2.3759,2.3762,2.3839,2.3839,2.3839,2.3799,0,0,0,0,0,0,2.3382,2.3397,2.3404,2.3464,2.3482,2.3537,2.3562,2.3574,2.3598,2.3602,2.3659,2.3668,2.3703,2.3742,2.3751,2.3755,2.3765,2.3839,2.3839,2.3839,2.38,2.3798,2.3795,0,0,0,0,0,2.3376,2.3387,2.3404,2.3417,2.3493,2.3537,2.3547,2.3588,2.3597,2.3606,2.3643,2.3666,2.3748,2.3745,2.3756,2.3761,2.3839,2.3839,2.3839,2.3801,2.3798,2.3795,0,0,0,0,0,0,2.3324,2.3396,2.3415,2.3446,2.3486,2.3546,2.3558,2.3583,2.3619,2.3621,2.3669,2.3682,2.3712,2.374,2.3735,2.3783,2.3796,2.3798,2.3764,2.3761,2.3758,2.3751,2.3768,0,0,0,0,0,2.3316,2.3347,2.3408,2.343,2.3449,2.35,2.3521,2.3549,2.3591,2.3607,2.3647,2.3686,2.3721,2.3742,2.3777,2.3805,2.3819,2.3814,2.3811,2.3809,2.381,2.3829,2.3828,2.3838,2.3838,2.3838,0,0,2.33,2.3344,2.336,2.3421,2.3454,2.3485,2.3513,2.3544,2.3568,2.3612,2.3648,2.3678,2.3725,2.3757,2.3773,2.3781,2.381,2.3808,2.3806,2.3809,2.3829,2.3828,2.3827,2.3838,2.3838,2.3838,0,0,2.3288,2.3323,2.3346,2.338,2.3431,2.3466,2.3471,2.3529,2.3552,2.3589,2.3624,2.3652,2.371,2.3743,2.3767,2.377,2.3794,2.378,2.3766,2.3784,2.3783,2.3783,2.3786,2.3786,2.3781,2.3781,2.3781,0,2.3261,2.331,2.3354,2.3385,2.3411,2.3455,2.3479,2.3509,2.3568,2.3586,2.3594,2.367,2.3704,2.3746,2.3747,2.3765,2.3773,2.3774,2.378,2.378,2.378,2.3783,2.3784,2.3779,2.3779,2.3779,2.3779,0,2.3276,2.3309,2.3322,2.3381,2.3408,2.3435,2.3484,2.3507,2.3533,2.3567,2.3605,2.3648,2.3694,2.3706,2.3731,2.3751,2.3755,2.3771,2.3785,2.3777,2.378,2.3782,2.3776,2.3777,2.3777,2.3778,0,0,2.3232,2.3317,2.3321,2.335,2.3411,2.3437,2.3466,2.3513,2.3532,2.3572,2.3599,2.3648,2.3665,2.3692,2.3721,2.3737,2.3739,2.3751,2.3753,2.3749,2.3766,2.3755,2.3755,2.3755,2.3755,2.3756,2.3763,0,2.3229,2.3285,2.3328,2.3368,2.34,2.3443,2.3469,2.3509,2.3542,2.3574,2.3609,2.3645,2.3662,2.368,2.3697,2.3735,2.3743,2.3735,2.3781,2.3782,2.3769,2.3757,2.3744,2.3749,2.3765,2.3765,2.3765,0,2.3233,2.3274,2.3318,2.3378,2.3394,2.3416,2.3464,2.3493,2.354,2.3563,2.3595,2.3626,2.366,2.3671,2.3718,2.3712,2.3733,2.3754,2.3756,2.3762,2.3773,2.3764,2.3751,2.3752,2.3767,2.3767,2.3767,0,2.3199,2.3265,2.3301,2.3323,2.3394,2.3409,2.3439,2.3487,2.3512,2.3553,2.3571,2.3614,2.3638,2.3671,2.3713,2.3717,2.3757,2.3771,2.3777,2.3776,2.3784,2.3783,2.3775,2.3795,2.3795,2.3795,2.3795,0,2.3192,2.3218,2.3287,2.3308,2.3339,2.3387,2.3416,2.3449,2.3492,2.3521,2.356,2.3586,2.364,2.3673,2.3706,2.3741,2.3751,2.377,2.3779,2.3768,2.3765,2.3783,2.3784,2.3796,2.3796,2.3796,2.3796,0,2.3159,2.3206,2.3248,2.3313,2.333,2.3349,2.3404,2.3427,2.3463,2.35,2.3511,2.3566,2.3607,2.3653,2.3708,2.3731,2.3764,2.3776,2.3749,2.3754,2.3758,2.3758,2.3762,2.3766,2.3782,2.3782,2.3782,0,2.3152,2.3174,2.3241,2.3264,2.3294,2.333,2.3358,2.3407,2.3434,2.349,2.3507,2.3551,2.359,2.3654,2.3698,2.3742,2.3755,2.3754,2.3762,2.3751,2.3757,2.3756,2.3759,2.3752,2.3751,2.3751,2.3751,0,2.3136,2.3159,2.3198,2.3245,2.3278,2.3317,2.3358,2.3374,2.3431,2.346,2.3503,2.3533,2.3592,2.3636,2.3685,2.3715,2.3743,2.3748,2.3752,2.3741,2.3725,2.3735,2.3744,2.3748,2.3748,2.3748,2.3748,2.3748,2.3117,2.3139,2.3191,2.3233,2.327,2.3307,2.3333,2.3373,2.3411,2.3463,2.3489,2.3533,2.3582,2.3651,2.3681,2.3716,2.3724,2.3729,2.3731,2.3732,2.373,2.3719,2.3724,2.3725,2.3725,2.3725,2.3725,0,2.3104,2.314,2.3179,2.3236,2.327,2.3294,2.3341,2.3368,2.3406,2.345,2.3487,2.3539,2.3582,2.3631,2.3678,2.3696,2.371,2.3707,2.3706,2.3713,2.3718,2.3711,2.3695,2.3695,2.3695,2.3695,2.3695,2.3695,2.3101,2.3141,2.317,2.3228,2.3263,2.3308,2.3333,2.3368,2.3404,2.3459,2.3497,2.3529,2.3575,2.3626,2.3667,2.368,2.3696,2.3689,2.3706,2.371,2.3713,2.3715,2.3708,2.3692,2.3692,2.3698,2.3698,2.3698]}]]